Regional Weather Roundup
Issued by NWS

Home | Current Version | Previous Version | Graphics & Text | Print | Product List | Glossary On
Versions: 1 2 3 4 5 6 7 8 9 10 11 12 13 14 15 16 17 18 19 20 21 22 23 24 25 26 27 28 29 30 31 32 33 34 35 36 37 38 39 40 41 42 43 44 45 46 47 48 49 50
000
ASUS45 KABQ 161010
RWRNM
NEW MEXICO REGIONAL WEATHER ROUNDUP
NATIONAL WEATHER SERVICE ALBUQUERQUE NM
400 AM MDT WED AUG 16 2017

NOTE: "FAIR" MEANS FEW OR NO CLOUDS BELOW 12,000 FEET AGL WITH NO
       SIGNIFICANT WEATHER OR OBSTRUCTIONS TO VISION.

      THIS PRODUCT IS RELEASED AS TWO VERSIONS.  ONE VERSION NEAR
      THE TOP OF THE HOUR CONTAINING PRELIMINARY DATA FROM ALBUQUERQUE
      AND OTHER STATIONS.  A FINAL VERSION WITH ADDITIONAL DATA IS
      ISSUED ABOUT 10 MINUTES AFTER THE HOUR.

NMZ501-503-504-510>518-161100-
NORTHWEST PLATEAU/NORTHCENTRAL MOUNTAINS

CITY           SKY/WX    TMP DP  RH WIND       PRES   REMARKS
FARMINGTON     FAIR      51  33  50 NE8       30.09R
LOS ALAMOS     FAIR      62  29  28 CALM      30.19S
SANTA FE       FAIR      59  36  42 N5        30.13S
TAOS           CLOUDY    55  37  50 CALM      30.21R
ANGEL FIRE     FAIR      39  34  82 SE5       30.24S

$$
NMZ402-403-502-505>509-161100-
WESTCENTRAL MOUNTAINS/SOUTHWEST MOUNTAINS

CITY           SKY/WX    TMP DP  RH WIND       PRES   REMARKS
GALLUP         FAIR      46  36  68 NE6       30.18R
GRANTS         FAIR      49  36  59 NW16      30.20S
SILVER CITY    FAIR      61  50  66 NW9       30.12S

$$
NMZ407-409-411-412-161100-
SOUTHERN DESERTS

CITY           SKY/WX    TMP DP  RH WIND       PRES   REMARKS
DEMING         FAIR      65  55  70 SW7       30.06R
LAS CRUCES     FAIR      69  52  54 W6        30.04R
HOLLOMAN AFB   FAIR      72  56  58 S8        30.01R
ALAMOGORDO     FAIR      68  54  60 S6        30.01R
T OR C         FAIR      69  45  41 NW9       30.05S

$$
NMZ519>523-161100-
CENTRAL VALLEYS/CENTRAL HIGHLANDS

CITY           SKY/WX    TMP DP  RH WIND       PRES   REMARKS
ALBUQUERQUE    FAIR      64  42  44 S3        30.10R
MORIARTY ARPT  FAIR      53  47  80 CALM      30.15S
CLINES CORNERS FAIR      54  35  48 NW13      30.17S
BELEN          FAIR      60  43  53 W6        30.09S
SOCORRO        FAIR      64  43  45 NW6       30.06S

$$
NMZ524>526-539-540-161100-
SOUTHCENTRAL MOUNTAINS

CITY           SKY/WX    TMP DP  RH WIND       PRES   REMARKS
RUIDOSO        FAIR      61  37  41 W9        30.20R

$$
NMZ527>531-161100-
NORTHEAST HIGHLANDS/NORTHEAST PLAINS

CITY           SKY/WX    TMP DP  RH WIND       PRES   REMARKS
LAS VEGAS      FAIR      59  32  36 NE5       30.14S
RATON          FAIR      57  49  74 NE10      30.07S
CLAYTON        FAIR      60  55  83 N13       30.00R

$$
NMZ532>537-161100-
EASTCENTRAL PLAINS

CITY           SKY/WX    TMP DP  RH WIND       PRES   REMARKS
SANTA ROSA     FAIR      62  45  52 CALM      30.00S
TUCUMCARI      FAIR      67  58  72 W8        29.92R
CANNON AFB     FAIR      66  66 100 W8        29.97S
CLOVIS AIRPORT NOT AVBL

$$
NMZ028-029-538-161100-
SOUTHEAST PLAINS

CITY           SKY/WX    TMP DP  RH WIND       PRES   REMARKS
ROSWELL        FAIR      66  62  87 SE3       29.94R
ARTESIA        FAIR      68  63  83 SW6       29.94R
CARLSBAD       FAIR      69  68  96 SW7       29.90R
HOBBS          FAIR      66  64  94 W5        29.93F


$$




USA.gov is the U.S. government's official web portal to all federal, state and local government web resources and services.